Regional Weather Roundup
Issued by NWS

Home | Current Version | Previous Version | Text Only | Print | Product List | Glossary Off
Versions: 1 2 3 4 5 6 7 8 9 10 11 12 13 14 15 16 17 18 19 20 21 22 23 24 25 26 27 28 29 30 31 32 33 34 35 36 37 38 39 40 41 42 43 44 45 46 47 48 49 50

000
ASUS43 KLOT 180703
RWRIL

ILLINOIS REGIONAL WEATHER ROUNDUP
NATIONAL WEATHER SERVICE CHICAGO/ROMEOVILLE IL
100 AM CST SAT NOV 18 2017

NOTE: "FAIR" INDICATES FEW OR NO CLOUDS BELOW 12,000 FEET WITH NO
SIGNIFICANT WEATHER AND/OR OBSTRUCTIONS TO VISIBILITY.

* THESE STATIONS ARE NOT UNDER NWS QUALITY CONTROL. THEY ALSO MAY NOT
  REPORT WEATHER SUCH AS PRECIPITATION OR FOG.

ILZ001-002-007-009-015-016-024-180800-
NORTHWEST ILLINOIS

CITY           SKY/WX    TMP DP  RH WIND       PRES   REMARKS
MOLINE         CLOUDY    46  43  89 NE7       29.52F FOG
STERLING*        N/A    N/A N/A N/A MISG        N/A
SAVANNA*       CLOUDY    42  42  99 NE5       29.55F FOG
$$

ILZ003-004-008-010-011-017-018-180800-
NORTH CENTRAL ILLINOIS

CITY           SKY/WX    TMP DP  RH WIND       PRES   REMARKS
ROCKFORD       DRIZZLE   42  42 100 N5        29.57F FOG
FREEPORT*      FOG       40  40 100 CALM      29.57F VSB 3/4
ROCHELLE*      DRIZZLE   43  43 100 NE6       29.56F
DE KALB*       LGT RAIN  44  43  99 N5        29.56F
PERU*          CLOUDY    48  46  93 SW5       29.53F FOG
$$

ILZ005-006-012>014-019>023-180800-
NORTHEAST ILLINOIS

CITY           SKY/WX    TMP DP  RH WIND       PRES   REMARKS
CHICAGO-OHARE  LGT RAIN  47  45  93 N3        29.56S FOG
CHICAGO-MIDWAY CLOUDY    48  47  96 NW5       29.55S FOG
AURORA         CLOUDY    47  46  97 NW6       29.55F FOG
LANSING*       DRIZZLE   47  46  99 SW5       29.56F
JOLIET*        CLOUDY    49  48  94 CALM      29.55F
WAUKEGAN       CLOUDY    44  44 100 CALM      29.55F FOG
DUPAGE AIRPORT LGT RAIN  46  46 100 NW3       29.55S FOG
KANKAKEE*      CLOUDY    49  45  83 SW12      29.54F
WHEELING       CLOUDY    47  46  97 N3        29.57F FOG
MORRIS*        CLOUDY    48  46  95 CALM      29.53F FOG
ROMEOVILLE*    CLOUDY    47  46  94 SW6       29.54F FOG
NORTHERLY ISL    N/A     47  45  93 N8          N/A
$$

LMZ740>746-180800-
SOUTHERN LAKE MICHIGAN

STATION/POSITION SKY/WX   TEMP    WIND        PRES    VSBY  WAVE
                          AIR SEA DIR/SP/G                  HT/PER
                          (F)     (DEG/KT/KT) (MB)    (MI)  (FT/S)
SOUTHERN BUOY              46 49  240/ 10/ 12 1002.2          6/ 7
HARRISON CRIB              49     300/ 10/ 12   N/A
BURNHAM HARBOR             47     280/  3/  8   N/A
BURNS HARBOR               47     210/  4/  7 1002.0F
MICHIGAN CITY              44     190/  6/  7   N/A
$$

ILZ025>027-034>036-040-047-049-050-058-095>099-180800-
WEST-CENTRAL ILLINOIS

CITY           SKY/WX    TMP DP  RH WIND       PRES   REMARKS
QUINCY         PTCLDY    54  52  93 S7        29.45F
GALESBURG*     CLOUDY    52  50  92 CALM      29.50F
MACOMB*        HVY RAIN  52  50  93 CALM      29.50F VSB 1
JACKSONVILLE*  CLOUDY    57  53  86 S13       29.48F
PITTSFIELD*    PTCLDY    60  57  91 S8        29.48F
$$

ILZ028>032-037-038-041>044-048-051>054-059>061-180800-
CENTRAL ILLINOIS

CITY           SKY/WX    TMP DP  RH WIND       PRES   REMARKS
PONTIAC        CLOUDY    51  50  97 SW5       29.54S
BLOOMINGTON    LGT RAIN  52  48  86 S10       29.53F
DECATUR        CLOUDY    54  48  80 S16       29.52F
PEORIA         CLOUDY    51  48  89 SE3       29.51F
LACON*         CLOUDY    50  47  89 SW5       29.51F
LINCOLN*       CLOUDY    52  49  89 S7        29.50F
SPRINGFIELD    CLOUDY    57  52  83 S13       29.50F
TAYLORVILLE    CLOUDY    55  52  89 S14       29.52F
$$

ILZ033-039-045-046-055>057-062-063-180800-
EAST-CENTRAL ILLINOIS

CITY           SKY/WX    TMP DP  RH WIND       PRES   REMARKS
CHAMPAIGN      CLOUDY    53  47  79 S17       29.54F
DANVILLE*      CLOUDY    54  46  73 SW16G24   29.53F
RANTOUL*       CLOUDY    54  48  82 S12       29.54F
MATTOON        CLOUDY    55  48  77 S13       29.55F
PARIS*         CLOUDY    54  48  82 S20       29.57F
$$

ILZ079-100>102-180800-
SOUTHWEST ILLINOIS

CITY           SKY/WX    TMP DP  RH WIND       PRES   REMARKS
ALTON          CLOUDY    61  58  90 S13       29.53F
BELLEVILLE     MOCLDY    62  56  80 S9        29.54F
CAHOKIA*       CLOUDY    60  55  83 SE8       29.53F
SPARTA*        PTCLDY    62  56  80 S16G22    29.58F
$$

ILZ064>066-069>071-074>076-080>082-084>086-088>090-092>094-180800-
SOUTH-CENTRAL ILLINOIS

CITY           SKY/WX    TMP DP  RH WIND       PRES   REMARKS
CARBONDALE     CLOUDY    65  56  72 S17G28    29.62F
CAIRO*         CLOUDY    64  56  75 S12       29.66F
EFFINGHAM*     CLOUDY    59  53  78 S12G17    29.59F
MARION         CLOUDY    65  56  70 S17G26    29.65F
MT. VERNON     CLOUDY    63  55  75 S20G29    29.60F
CENTRALIA*     CLOUDY    64  57  77 S22G30    29.57F
SALEM*         MOCLDY    64  55  72 S16G23    29.58F
METROPOLIS*    CLOUDY    66  55  68 S13G23    29.68F
$$

ILZ067-068-072-073-078-083-087-091-180800-
SOUTHEAST ILLINOIS

CITY           SKY/WX    TMP DP  RH WIND       PRES   REMARKS
LAWRENCEVILLE  CLOUDY    57  46  66 S21       29.63F
FLORA*         CLOUDY    60  53  78 S14       29.60F
FAIRFIELD*     CLOUDY    60  54  79 S8        29.61F
HARRISBURG*    CLOUDY    65  56  72 S13G21    29.65F
ROBINSON*      CLOUDY    56  46  66 S14       29.62F
CARMI*         CLOUDY    60  52  76 S13       29.64F
$$

ABBREVIATIONS USED IN REMARKS
   TC - TEMPERATURE IN CELSIUS
  WCI - WIND CHILL INDEX
   HX - HEAT INDEX
  VSB - VISIBILITY
$$





USA.gov is the U.S. government's official web portal to all federal, state and local government web resources and services.